Theta_e
316 317 317 317 318 318 318 318 317 318 318 320 320 320 321 320 320 319 320 325 324 325 325 325 326 326 331 332 333 333 333 337 339 338 337 344 349 351 349 350 352 352 351 350 351
313 315 317 317 317 317 318 317 317 317 317 319 319 319 319 319 319 319 321 321 322 323 325 325 326 328 327 329 329 330 328 333 334 335 336 343 347 350 351 352 352 352 349 350 352
312 313 315 317 317 317 317 317 317 317 317 319 320 318 318 318 318 319 321 320 321 322 324 324 324 324 330 328 328 329 330 332 336 337 342 345 347 351 352 353 352 352 352 351 352
312 312 312 314 316 316 316 316 317 316 316 321 321 318 317 317 325 333 328 322 320 321 322 322 321 330 327 325 328 330 328 339 341 340 339 343 346 349 351 353 347 348 349 349 348
309 311 311 311 313 315 315 316 316 316 316 322 322 318 316 316 320 327 330 326 320 321 321 321 322 330 327 325 327 329 329 340 340 339 339 343 343 347 351 352 349 349 350 349 350
308 309 310 311 311 313 315 315 316 315 316 322 321 318 315 321 327 332 334 331 325 321 321 320 322 329 327 325 325 330 331 338 340 342 342 344 346 347 349 352 351 351 351 351 351
308 308 309 310 311 312 314 315 315 315 315 322 318 316 314 319 333 333 330 326 322 321 320 320 322 327 326 323 331 333 327 339 340 341 341 343 345 347 346 348 351 351 350 349 347
307 308 309 309 310 312 313 314 315 315 315 323 318 315 316 322 330 328 328 320 319 319 319 321 326 328 325 327 332 330 324 326 333 341 342 341 345 346 346 346 347 347 349 348 347
308 308 309 309 309 311 313 313 316 315 315 323 318 325 322 326 328 330 328 321 319 320 321 326 325 324 326 328 327 325 327 326 334 340 340 339 341 343 345 346 346 346 346 347 347
308 309 309 310 310 310 313 313 316 317 316 323 320 326 326 325 330 330 326 322 322 323 323 323 324 323 323 325 329 331 329 328 328 336 339 338 338 343 343 344 345 345 345 346 346
308 309 310 310 310 310 313 314 318 328 322 324 324 322 325 326 330 330 325 324 323 323 321 324 322 323 324 325 328 331 332 331 329 338 337 336 339 343 343 343 344 344 345 345 345
309 309 310 311 310 311 311 313 316 317 319 321 323 325 326 328 327 329 324 324 322 320 321 321 321 323 326 327 328 329 330 330 330 336 337 338 342 341 342 342 343 343 344 345 344
309 309 309 311 311 311 312 317 317 316 319 321 322 323 325 328 329 329 323 322 321 320 320 319 321 324 326 326 326 325 326 327 329 332 336 340 341 342 341 342 343 343 344 345 344
309 309 309 311 311 312 314 317 315 319 317 321 323 324 324 327 330 330 324 323 322 320 320 320 322 323 325 326 325 323 326 329 330 326 333 336 341 337 339 342 343 343 343 344 344
310 309 309 308 310 311 311 314 317 321 321 324 324 325 325 327 330 329 326 324 322 322 320 321 322 323 324 325 325 325 326 327 330 326 326 332 333 339 339 343 343 343 343 343 344
309 310 309 309 310 311 313 314 318 320 326 327 325 324 325 327 329 328 325 325 325 322 322 321 324 322 324 325 326 327 328 326 323 322 326 326 324 325 341 344 342 344 344 343 344
307 309 309 309 311 311 312 312 314 321 324 324 324 323 324 325 326 327 323 322 320 320 320 321 323 323 325 325 328 327 323 325 328 326 327 325 327 326 335 340 343 345 344 344 345
305 306 310 312 311 311 310 311 314 319 322 323 322 323 326 325 324 325 323 323 322 320 318 321 324 326 326 325 326 325 323 326 330 328 328 325 328 329 329 338 343 345 343 340 345
305 306 309 314 312 310 313 311 314 318 322 323 322 324 324 326 325 325 322 323 323 319 320 322 326 328 327 327 326 327 326 324 327 326 327 328 332 332 332 335 339 342 341 340 344
303 305 310 312 312 311 311 313 313 317 319 320 322 322 321 324 324 324 324 324 324 323 320 323 327 326 329 328 326 326 325 327 322 329 330 329 333 331 331 330 333 337 339 340 343
303 307 313 314 311 313 311 311 314 316 316 317 319 320 319 318 321 322 323 325 325 324 321 321 323 325 328 326 326 324 327 324 322 323 326 327 330 330 329 331 332 333 341 340 343
303 307 313 311 314 312 310 310 314 314 315 314 315 316 317 318 318 320 322 325 327 327 323 321 319 324 326 325 325 325 323 323 324 326 325 326 329 330 328 330 332 335 338 342 343
303 305 308 311 310 312 313 315 315 314 314 313 314 316 317 316 318 320 324 328 328 327 326 324 320 324 325 324 325 325 324 324 323 323 327 328 327 329 330 330 336 337 336 338 342
304 306 311 313 313 312 313 315 317 319 317 316 314 315 315 316 315 319 324 328 329 328 329 329 321 324 327 325 325 326 325 325 325 326 326 327 332 332 328 331 332 335 336 336 343
305 307 310 309 311 311 312 315 317 320 322 321 317 315 315 314 315 317 323 325 326 328 332 327 324 322 325 326 327 327 327 326 326 324 327 327 330 330 327 331 333 334 333 337 342
303 307 308 309 311 310 312 315 317 317 317 317 319 321 319 314 315 317 321 322 325 328 331 325 323 323 327 327 327 328 329 328 327 326 327 326 328 328 329 333 335 336 338 340 340
307 306 307 310 308 310 311 313 314 314 315 318 318 319 319 319 318 318 321 323 323 327 327 326 325 325 328 328 328 328 327 328 328 326 326 328 327 330 332 334 335 337 339 339 339
Wind_Speed
13 13 13 13 13 14 15 16 17 17 16 15 14 12 12 14 16 19 24 21 14 14 12 13 13 12 11 9 13 8 2 5 8 15 10 23 20 15 20 30 5 5 29 32 27
15 14 13 14 14 14 15 16 17 17 17 15 12 10 11 12 15 24 24 20 19 17 13 11 14 13 13 6 5 7 6 11 8 14 17 26 30 23 16 18 23 29 29 31 29
16 16 14 14 15 14 14 16 17 17 18 14 11 9 10 10 14 15 8 18 20 18 15 13 14 16 8 9 2 5 6 7 14 23 33 28 25 21 31 13 32 35 37 33 33
16 17 17 16 16 16 15 15 17 17 18 15 11 9 9 7 4 1 3 6 21 18 16 13 9 5 5 4 8 7 5 17 21 27 34 20 29 19 22 17 33 38 37 37 33
16 16 17 18 17 17 16 16 16 17 17 14 10 9 7 7 16 3 1 4 15 20 18 15 6 6 5 7 19 5 6 28 30 33 30 30 20 17 23 34 35 37 36 35 32
17 17 16 18 18 17 17 16 16 16 17 13 9 9 8 6 4 4 5 8 14 19 18 18 8 3 12 7 4 14 20 26 28 27 29 27 25 18 27 36 35 33 33 33 30
19 19 18 17 18 18 17 17 16 15 15 13 10 9 12 18 5 2 8 9 12 16 19 18 14 10 4 9 14 18 7 19 26 20 15 30 10 11 34 36 37 34 34 31 27
20 19 20 19 18 18 17 16 17 15 12 11 9 8 10 4 13 12 6 9 12 12 14 12 11 15 12 14 12 5 6 7 5 29 23 5 5 20 35 35 31 31 33 28 28
22 21 20 21 20 18 17 16 17 15 10 9 8 7 12 9 16 13 11 8 11 10 13 9 9 10 9 4 5 7 5 3 4 13 8 4 7 22 34 35 30 31 32 31 29
23 23 21 19 20 20 16 17 16 14 10 9 11 8 13 10 15 14 8 8 11 11 9 8 6 2 3 5 4 2 2 5 9 8 3 7 8 23 34 33 32 31 30 32 34
24 24 23 21 19 21 16 10 6 1 8 13 11 14 22 14 13 17 14 16 13 5 4 3 3 7 10 8 6 4 4 9 7 11 4 9 14 23 31 28 28 30 32 35 37
26 25 24 21 19 18 15 8 10 15 14 20 22 29 31 23 9 19 18 16 11 7 3 4 8 11 6 6 7 7 8 15 12 20 8 9 18 17 26 29 35 34 34 41 38
25 27 26 22 20 13 13 6 12 23 5 17 26 27 29 15 17 24 25 25 5 7 6 7 8 7 7 10 8 11 7 10 10 12 8 10 3 8 11 22 28 32 39 40 43
25 25 25 25 11 9 10 6 13 3 3 7 8 18 22 16 8 26 30 22 5 12 5 7 15 10 9 12 8 8 15 9 4 7 7 7 5 8 15 14 20 30 33 38 43
24 24 22 21 22 16 12 14 9 6 3 7 6 11 24 17 8 25 34 29 12 7 8 9 9 8 12 17 6 12 10 7 4 5 6 5 4 11 13 14 18 29 35 40 48
25 22 25 19 24 13 9 7 5 5 8 6 4 10 9 15 6 26 32 31 24 6 3 11 14 8 13 15 15 12 4 8 5 4 1 7 7 4 13 27 23 31 38 42 43
27 24 21 26 22 15 12 7 3 5 4 6 4 7 18 8 9 6 17 16 7 7 10 6 14 9 8 7 6 4 7 3 4 3 7 3 4 9 20 20 29 32 42 43 41
28 26 23 27 20 17 9 3 8 9 12 4 6 2 14 9 9 11 10 15 14 5 4 7 8 10 7 12 12 7 10 6 5 3 7 6 6 14 12 35 41 49 51 44 41
31 28 24 22 17 18 12 5 9 6 6 5 10 3 6 3 6 15 10 18 16 12 9 7 8 6 5 7 11 6 4 9 6 2 3 3 6 7 5 8 20 31 32 34 43
31 29 24 17 18 23 4 8 7 5 7 2 1 3 5 5 6 14 12 12 15 16 9 6 3 6 16 5 5 9 7 1 3 4 4 5 3 5 4 9 10 15 29 35 42
22 16 13 3 20 18 6 7 6 24 9 3 5 6 5 2 2 6 9 11 24 18 15 13 4 9 2 5 10 1 1 4 5 5 6 3 6 7 12 11 13 13 28 35 41
9 3 10 3 2 5 4 6 5 15 18 4 4 7 8 3 6 6 10 16 29 24 15 10 7 10 17 11 5 6 12 8 6 6 2 5 7 6 10 10 18 18 20 23 30
18 14 17 6 4 4 5 8 12 8 7 5 6 5 2 4 4 9 13 9 9 22 18 11 5 4 10 7 4 5 7 6 6 4 7 7 6 1 5 10 23 26 27 21 15
7 4 6 1 7 4 4 7 14 19 18 22 13 15 14 18 8 8 12 8 5 4 24 27 7 12 16 9 5 5 10 7 8 5 5 7 5 5 8 9 12 24 22 18 15
4 5 7 4 6 9 3 4 6 6 8 17 5 17 17 8 7 8 8 12 5 6 5 13 10 9 15 16 9 8 12 12 8 9 8 8 11 15 14 14 22 27 24 23 22
6 5 11 16 16 6 4 3 4 14 6 11 8 14 13 16 14 17 6 6 8 2 2 3 7 12 17 17 11 7 9 9 10 4 4 8 7 10 18 19 21 29 27 24 21
4 9 6 9 6 5 4 10 18 13 14 13 14 14 13 19 18 30 27 23 10 5 4 4 6 7 17 11 10 5 11 9 6 6 9 7 11 10 7 12 23 33 33 27 20
Wind_Direction
355 348 344 341 341 340 337 335 331 329 325 319 309 292 277 270 263 255 244 246 249 252 264 284 302 306 306 223 218 194 34 270 165 136 148 144 132 141 127 141 143 142 145 150 145
346 344 338 335 335 335 332 331 328 326 324 319 311 295 282 277 272 257 243 241 242 243 256 271 281 294 315 271 219 161 150 224 195 141 136 145 134 128 130 120 110 116 135 149 155
340 337 335 331 328 329 328 327 327 325 322 317 308 297 289 287 293 279 243 228 226 232 238 254 274 302 293 309 241 215 211 151 149 142 131 130 130 129 123 138 144 144 149 151 159
334 333 332 329 326 324 324 324 325 323 321 315 302 292 290 281 245 289 24 234 210 216 226 242 266 292 287 334 329 348 183 116 127 127 123 129 133 139 131 157 145 148 151 157 161
330 329 328 327 324 321 320 319 321 321 320 317 298 289 284 255 251 315 214 209 199 211 217 228 241 262 313 329 340 303 107 124 131 132 128 138 134 123 121 146 145 151 156 163 167
330 326 324 323 321 318 317 315 315 318 318 315 296 286 255 252 237 224 260 258 216 213 213 218 212 223 302 288 338 290 122 124 115 118 121 114 121 120 141 148 152 162 170 173 177
328 326 321 319 317 316 314 313 310 312 313 309 300 283 254 245 217 275 309 264 218 214 218 219 224 252 291 317 328 294 100 119 121 121 125 114 110 142 151 152 158 171 177 180 178
329 324 322 318 316 313 311 310 305 305 304 300 303 290 257 183 204 257 260 227 201 206 220 212 223 271 266 284 327 311 65 126 239 135 161 111 167 155 158 158 167 173 181 188 183
326 325 321 320 317 311 309 308 301 298 289 285 286 283 267 212 231 224 228 219 183 186 198 220 277 256 267 72 354 1 152 134 146 180 139 101 139 175 169 164 172 181 189 193 189
325 323 320 318 318 311 309 307 305 293 266 272 254 292 253 235 207 202 201 186 175 180 242 250 227 70 30 80 235 263 297 179 171 210 149 130 176 171 177 170 175 186 194 195 188
325 321 318 317 316 310 310 322 325 4 308 258 270 246 288 318 207 208 203 203 209 211 174 255 76 228 229 184 215 244 265 285 231 176 113 171 159 176 181 176 177 190 195 194 194
322 322 317 316 313 305 301 297 23 339 300 284 268 271 274 269 291 209 202 197 187 192 152 352 235 231 249 262 243 258 265 271 270 164 120 182 176 173 182 187 184 190 194 194 196
321 320 319 314 312 298 281 312 334 337 250 279 256 256 261 255 226 208 201 206 151 168 190 189 237 239 240 270 268 262 225 258 204 156 37 116 46 191 212 193 196 201 199 198 196
319 317 320 319 311 296 296 270 323 15 18 269 228 237 235 231 259 215 195 203 211 193 186 224 251 247 256 255 227 260 256 253 140 121 164 174 221 212 207 200 200 203 197 200 200
319 315 312 317 301 303 306 297 331 135 321 247 224 205 207 177 186 190 193 199 201 174 138 228 196 205 232 245 223 246 276 234 156 171 95 219 91 232 157 204 212 204 201 204 204
316 311 307 301 291 315 293 298 339 58 240 280 193 172 147 182 233 168 186 198 220 190 241 228 245 177 220 238 240 241 279 30 63 102 128 215 155 245 174 201 209 203 201 206 204
311 306 299 289 274 285 291 330 58 191 245 244 216 168 185 174 215 184 179 194 163 172 228 301 261 247 215 225 262 145 64 341 346 356 226 177 110 220 208 204 199 196 200 205 204
307 309 295 267 271 266 257 73 206 200 231 318 12 91 183 162 221 197 165 200 213 125 149 200 285 216 214 197 202 187 150 157 198 210 247 63 252 265 206 203 199 198 200 201 200
313 317 295 262 245 228 190 194 204 217 202 350 345 255 244 213 172 194 186 203 205 179 170 171 253 281 210 203 166 213 133 194 145 352 63 267 295 311 89 157 188 198 200 202 197
323 324 293 299 232 194 139 226 208 221 338 40 277 267 48 17 293 186 195 199 208 200 165 221 261 236 257 192 246 177 168 96 2 175 242 286 266 235 303 128 150 179 195 201 202
329 317 357 285 177 167 202 224 224 258 282 281 207 235 263 281 199 303 256 217 197 204 189 200 133 273 72 203 195 22 145 73 122 141 173 238 268 225 194 168 158 172 189 194 202
338 317 146 77 243 205 186 182 221 266 273 290 292 232 235 236 272 270 256 266 200 194 195 200 177 231 248 250 213 219 186 153 147 243 175 160 266 277 189 170 148 150 161 181 201
322 278 271 210 216 252 263 213 228 257 247 266 241 235 7 280 287 227 276 275 219 195 197 190 216 224 285 309 354 200 212 155 126 92 185 148 254 90 171 167 160 152 147 135 131
306 314 313 320 339 347 348 270 243 244 247 246 252 264 272 272 212 270 278 267 230 180 229 185 178 194 223 221 179 197 216 175 141 138 185 201 191 182 213 161 165 151 144 126 145
250 262 16 337 329 320 241 259 297 303 271 272 281 244 244 256 268 243 255 274 260 283 245 173 190 181 215 214 193 217 219 189 174 186 161 217 176 197 191 172 175 160 152 138 131
272 355 338 302 293 319 296 270 9 340 329 305 272 259 264 233 207 263 218 245 237 291 13 247 228 191 220 217 190 210 208 232 219 155 174 155 216 202 192 160 160 166 158 146 131
291 305 336 288 314 351 266 3 325 352 302 307 305 314 262 254 244 238 241 253 228 202 200 172 192 198 215 216 216 208 210 209 231 198 173 175 215 150 151 171 161 149 144 144 145